When you browse on this site, cookies collect data to enhance your experience and personalize the content and advertising you see.
Visit our Privacy Policy to learn more. By continuing to use the site, you agree to this use of cookies and data.
  • In Österreich
  • Länderverzeichnis
  • Für 7 Tage
  • Wassertemperatur
  • Satellitenkarten
  • Wetterkarte
  • News
  • Widgets
  • user-avatar
    Anmelden

    Stündliche Wetter Mingachevir

    Heute, 22 Mai, Mittwoch

    Zeit Temperatur Niederschläge Wind Luftdruck Luftfeuchtigkeit
    00:00 +18°C° 0 mm 3 m/S 757 mmHg 55%
    01:00 +17°C° 0 mm 2 m/S 756 mmHg 57%
    02:00 +17°C° 0 mm 2 m/S 756 mmHg 58%
    03:00 +16°C° 0 mm 2 m/S 756 mmHg 59%
    04:00 +17°C° 0 mm 2 m/S 756 mmHg 58%
    05:00 +17°C° 0 mm 2 m/S 756 mmHg 58%
    06:00 +17°C° 0 mm 2 m/S 756 mmHg 57%
    07:00 +19°C° 0 mm 2 m/S 755 mmHg 53%
    08:00 +20°C° 0 mm 2 m/S 755 mmHg 48%
    09:00 +22°C° 0 mm 3 m/S 754 mmHg 45%
    10:00 +24°C° 0 mm 2 m/S 754 mmHg 43%
    11:00 +25°C° 0 mm 2 m/S 753 mmHg 40%
    12:00 +26°C° 0 mm 2 m/S 753 mmHg 38%
    13:00 +27°C° 0 mm 2 m/S 753 mmHg 37%
    14:00 +27°C° 0 mm 2 m/S 752 mmHg 36%
    15:00 +28°C° 0 mm 2 m/S 752 mmHg 35%
    16:00 +27°C° 0 mm 2 m/S 752 mmHg 38%
    17:00 +27°C° 0 mm 1 m/S 752 mmHg 41%
    18:00 +27°C° 0 mm 1 m/S 752 mmHg 44%
    19:00 +26°C° 0.2 mm 1 m/S 752 mmHg 48%
    20:00 +25°C° 0.2 mm 1 m/S 752 mmHg 53%
    21:00 +24°C° 0.2 mm 2 m/S 752 mmHg 57%
    22:00 +23°C° 0 mm 2 m/S 752 mmHg 57%
    23:00 +21°C° 0 mm 2 m/S 752 mmHg 58%

    Morgen, 23 Mai, Donnerstag

    Zeit Temperatur Niederschläge Wind Luftdruck Luftfeuchtigkeit
    00:00 +21°C° 0 mm 2 m/S 752 mmHg 59%
    01:00 +20°C° 0 mm 2 m/S 752 mmHg 57%
    02:00 +20°C° 0 mm 2 m/S 752 mmHg 55%
    03:00 +19°C° 0 mm 3 m/S 752 mmHg 53%
    04:00 +20°C° 0 mm 3 m/S 751 mmHg 54%
    05:00 +20°C° 0 mm 3 m/S 751 mmHg 54%
    06:00 +20°C° 0 mm 3 m/S 751 mmHg 55%
    07:00 +22°C° 0 mm 3 m/S 751 mmHg 51%
    08:00 +25°C° 0 mm 3 m/S 751 mmHg 48%
    09:00 +27°C° 0 mm 3 m/S 751 mmHg 45%
    10:00 +28°C° 0 mm 3 m/S 750 mmHg 42%
    11:00 +29°C° 0 mm 3 m/S 750 mmHg 40%
    12:00 +30°C° 0 mm 2 m/S 749 mmHg 37%
    13:00 +29°C° 0.1 mm 2 m/S 749 mmHg 40%
    14:00 +29°C° 0.1 mm 2 m/S 749 mmHg 42%
    15:00 +28°C° 0.1 mm 2 m/S 748 mmHg 45%
    16:00 +28°C° 0.1 mm 2 m/S 748 mmHg 45%
    17:00 +28°C° 0.1 mm 2 m/S 749 mmHg 46%
    18:00 +28°C° 0.1 mm 2 m/S 749 mmHg 47%
    19:00 +27°C° 0.1 mm 2 m/S 749 mmHg 52%
    20:00 +25°C° 0.1 mm 2 m/S 750 mmHg 58%
    21:00 +24°C° 0.1 mm 1 m/S 750 mmHg 64%
    22:00 +24°C° 0 mm 1 m/S 750 mmHg 62%
    23:00 +23°C° 0 mm 1 m/S 750 mmHg 60%

    übermorgen, 24 Mai, Freitag

    Zeit Temperatur Niederschläge Wind Luftdruck Luftfeuchtigkeit
    00:00 +23°C° 0 mm 1 m/S 750 mmHg 58%
    01:00 +22°C° 0 mm 1 m/S 751 mmHg 57%
    02:00 +22°C° 0 mm 1 m/S 751 mmHg 55%
    03:00 +20°C° 0 mm 2 m/S 751 mmHg 54%
    04:00 +20°C° 0 mm 2 m/S 751 mmHg 52%
    05:00 +21°C° 0 mm 2 m/S 751 mmHg 51%
    06:00 +21°C° 0 mm 2 m/S 751 mmHg 49%
    07:00 +24°C° 0 mm 2 m/S 751 mmHg 44%
    08:00 +25°C° 0 mm 3 m/S 751 mmHg 40%
    09:00 +27°C° 0 mm 3 m/S 751 mmHg 35%
    10:00 +28°C° 0 mm 2 m/S 751 mmHg 34%
    11:00 +29°C° 0 mm 2 m/S 751 mmHg 34%
    12:00 +30°C° 0 mm 1 m/S 750 mmHg 34%
    13:00 +30°C° 0.1 mm 1 m/S 750 mmHg 34%
    14:00 +30°C° 0.1 mm 2 m/S 750 mmHg 35%
    15:00 +31°C° 0.1 mm 2 m/S 750 mmHg 35%
    16:00 +30°C° 0.1 mm 2 m/S 750 mmHg 41%
    17:00 +29°C° 0.1 mm 2 m/S 750 mmHg 46%
    18:00 +28°C° 0.1 mm 3 m/S 750 mmHg 52%
    19:00 +27°C° 0.4 mm 3 m/S 751 mmHg 57%
    20:00 +26°C° 0.4 mm 2 m/S 752 mmHg 61%
    21:00 +25°C° 0.4 mm 2 m/S 753 mmHg 66%
    22:00 +24°C° 0.2 mm 2 m/S 753 mmHg 68%
    23:00 +22°C° 0.2 mm 3 m/S 753 mmHg 69%

    25 Mai, Samstag

    Zeit Temperatur Niederschläge Wind Luftdruck Luftfeuchtigkeit
    00:00 +22°C° 0.2 mm 3 m/S 753 mmHg 71%
    01:00 +21°C° 0 mm 2 m/S 753 mmHg 71%
    02:00 +21°C° 0 mm 2 m/S 753 mmHg 72%
    03:00 +21°C° 0 mm 1 m/S 753 mmHg 72%
    04:00 +21°C° 0 mm 1 m/S 753 mmHg 71%
    05:00 +20°C° 0 mm 0 m/S 752 mmHg 69%
    06:00 +20°C° 0 mm 0 m/S 752 mmHg 67%
    07:00 +24°C° 0 mm 1 m/S 752 mmHg 63%
    08:00 +25°C° 0 mm 1 m/S 752 mmHg 59%
    09:00 +26°C° 0 mm 1 m/S 752 mmHg 55%
    10:00 +28°C° 0 mm 1 m/S 751 mmHg 51%
    11:00 +29°C° 0 mm 1 m/S 750 mmHg 47%
    12:00 +30°C° 0 mm 1 m/S 750 mmHg 43%
    13:00 +31°C° 0 mm 1 m/S 749 mmHg 42%
    14:00 +32°C° 0 mm 1 m/S 749 mmHg 40%
    15:00 +32°C° 0 mm 1 m/S 748 mmHg 39%
    16:00 +32°C° 0.2 mm 1 m/S 748 mmHg 42%
    17:00 +31°C° 0.2 mm 1 m/S 748 mmHg 46%
    18:00 +31°C° 0.2 mm 1 m/S 748 mmHg 49%
    19:00 +29°C° 0 mm 1 m/S 749 mmHg 53%
    20:00 +28°C° 0 mm 2 m/S 749 mmHg 57%
    21:00 +27°C° 0 mm 2 m/S 749 mmHg 61%
    22:00 +26°C° 0 mm 2 m/S 749 mmHg 60%
    23:00 +26°C° 0 mm 2 m/S 750 mmHg 59%

    26 Mai, Sonntag

    Zeit Temperatur Niederschläge Wind Luftdruck Luftfeuchtigkeit
    00:00 +26°C° 0 mm 3 m/S 750 mmHg 59%
    01:00 +25°C° 0 mm 3 m/S 750 mmHg 57%
    02:00 +25°C° 0 mm 4 m/S 750 mmHg 56%
    03:00 +23°C° 0 mm 5 m/S 750 mmHg 54%
    04:00 +23°C° 0 mm 5 m/S 750 mmHg 55%
    05:00 +25°C° 0 mm 4 m/S 750 mmHg 56%
    06:00 +25°C° 0 mm 4 m/S 750 mmHg 56%
    07:00 +27°C° 0 mm 5 m/S 750 mmHg 51%
    08:00 +28°C° 0 mm 5 m/S 749 mmHg 45%
    09:00 +30°C° 0 mm 5 m/S 749 mmHg 40%
    10:00 +32°C° 0.2 mm 5 m/S 749 mmHg 37%
    11:00 +33°C° 0.2 mm 4 m/S 749 mmHg 35%
    12:00 +34°C° 0.2 mm 4 m/S 749 mmHg 32%
    13:00 +34°C° 1.1 mm 4 m/S 748 mmHg 34%
    14:00 +34°C° 1.1 mm 4 m/S 748 mmHg 35%
    15:00 +33°C° 1.1 mm 3 m/S 748 mmHg 37%
    16:00 +31°C° 1 mm 3 m/S 748 mmHg 43%
    17:00 +30°C° 1 mm 2 m/S 749 mmHg 48%
    18:00 +29°C° 1 mm 2 m/S 749 mmHg 54%
    19:00 +28°C° 0.1 mm 1 m/S 750 mmHg 57%
    20:00 +27°C° 0.1 mm 1 m/S 750 mmHg 61%
    21:00 +24°C° 0.1 mm 0 m/S 751 mmHg 64%
    22:00 +25°C° 0.3 mm 1 m/S 751 mmHg 65%
    23:00 +25°C° 0.3 mm 1 m/S 751 mmHg 66%

    27 Mai, Montag

    Zeit Temperatur Niederschläge Wind Luftdruck Luftfeuchtigkeit
    00:00 +24°C° 0.3 mm 2 m/S 751 mmHg 68%
    01:00 +24°C° 0.1 mm 2 m/S 751 mmHg 67%
    02:00 +23°C° 0.1 mm 2 m/S 752 mmHg 67%
    03:00 +23°C° 0.1 mm 2 m/S 752 mmHg 67%
    04:00 +22°C° 0 mm 3 m/S 752 mmHg 65%
    05:00 +24°C° 0 mm 3 m/S 752 mmHg 63%
    06:00 +24°C° 0 mm 3 m/S 753 mmHg 60%
    07:00 +26°C° 0 mm 3 m/S 753 mmHg 55%
    08:00 +27°C° 0 mm 4 m/S 753 mmHg 50%
    09:00 +29°C° 0 mm 4 m/S 753 mmHg 44%
    10:00 +30°C° 0 mm 4 m/S 752 mmHg 41%
    11:00 +31°C° 0 mm 3 m/S 752 mmHg 37%
    12:00 +33°C° 0 mm 3 m/S 752 mmHg 34%
    13:00 +32°C° 0 mm 2 m/S 752 mmHg 34%
    14:00 +32°C° 0 mm 2 m/S 752 mmHg 33%
    15:00 +32°C° 0 mm 1 m/S 752 mmHg 33%
    16:00 +31°C° 0.1 mm 1 m/S 752 mmHg 36%
    17:00 +30°C° 0.1 mm 1 m/S 753 mmHg 40%
    18:00 +30°C° 0.1 mm 1 m/S 753 mmHg 43%
    19:00 +28°C° 0.1 mm 2 m/S 754 mmHg 46%
    20:00 +27°C° 0.1 mm 3 m/S 754 mmHg 48%
    21:00 +26°C° 0.1 mm 3 m/S 755 mmHg 50%
    22:00 +25°C° 0.1 mm 3 m/S 755 mmHg 52%
    23:00 +25°C° 0.1 mm 3 m/S 755 mmHg 55%
    Mehr zeigen